Regional Weather Roundup
Issued by NWS

Home | Current Version | Previous Version | Text Only | Print | Product List | Glossary On
Versions: 1 2 3 4 5 6 7 8 9 10 11 12 13 14 15 16 17 18 19 20 21 22 23 24 25 26 27 28 29 30 31 32 33 34 35 36 37 38 39 40 41 42 43 44 45 46 47 48 49 50
000
ASUS43 KMPX 111010
RWRMN
WEATHER ROUNDUP FOR MINNESOTA
NATIONAL WEATHER SERVICE TWIN CITIES/CHANHASSEN MN
400 AM CST THU FEB 11 2016


NOTE: "FAIR" INDICATES FEW OR NO CLOUDS BELOW 12,000 FEET WITH NO
SIGNIFICANT WEATHER AND/OR OBSTRUCTIONS TO VISIBILITY. N/A MEANS
CURRENT SKY AND/OR WEATHER CONDITIONS ARE NOT AVAILABLE.

MNZ060>063-068>070-111100-
   Twin Cities Metro

CITY           SKY/WX    TMP DP  RH WIND       PRES   REMARKS
TWIN CITIES    CLOUDY     5  -4  66 CALM      30.29S
ST PAUL        PTCLDY     3  -5  69 NW3       30.31S
CRYSTAL        CLOUDY     2  -5  72 CALM      30.28S
BLAINE         CLOUDY     1  -6  71 CALM      30.28S
LAKEVILLE      PTCLDY     0  -6  78 CALM      30.28S
EDEN PRAIRIE   PTCLDY     3  -5  69 NW5       30.28S WCI  -6
SOUTH ST PAUL  CLOUDY     2  -5  73 CALM      30.30S
LAKE ELMO      FAIR      -4  -8  84 CALM      30.29S
$$
MNZ001>005-007-008-013>017-022>024-027-028-111100-
   Northwest Minnesota

CITY           SKY/WX    TMP DP  RH WIND       PRES   REMARKS
BEMIDJI        CLOUDY   -18 -23  77 CALM      30.24S
HALLOCK        CLOUDY    -8 -11  84 S3        30.28F
ROSEAU         CLOUDY   -17 -24  70 SW3       30.26F
WARROAD        CLOUDY   -13 -18  77 CALM      30.25F
THIEF RVR FALL CLOUDY    -8 -22  49 CALM      30.27S
CROOKSTON      CLOUDY     0  -6  78 E3        30.30R
FOSSTON        PTCLDY   -17 -24  70 CALM      30.26S
DETROIT LAKES  CLOUDY    -4  -8  84 CALM      30.24S
MOORHEAD       CLOUDY     1  -2  85 CALM      30.29S
PARK RAPIDS    PTCLDY    -9 -15  75 CALM      30.23S
MAHNOMEN       FAIR      -7 -12  79 CALM      30.25S
$$
MNZ006-009>011-018-025>026-111100-
   North Central Minnesota

CITY           SKY/WX    TMP DP  RH WIND       PRES   REMARKS
BAUDETTE       CLOUDY   -15 -22  70 CALM      30.23S
FLAG ISLAND    CLOUDY    -6 -11  77 CALM      30.23F
INTL FALLS     CLOUDY   -11 -16  78 W3        30.23F
WASKISH        PTCLDY   -20 -26  76 CALM      30.24F
LONGVILLE      CLOUDY   -17 -20  83 CALM      30.25S
GRAND RAPIDS   PTCLDY   -17 -22  76 CALM      30.22S
CRANE LAKE     CLOUDY   -18 -24  76 CALM        N/A
ORR            CLOUDY   -20 -27  69 CALM      30.20S
COOK           CLOUDY   -26 -31  75 CALM      30.22S
WALKER         FAIR     -14 -18  81 CALM      30.24S
$$
MNZ012-019>021-037-111100-
   Northeast Minnesota

CITY           SKY/WX    TMP DP  RH WIND       PRES   REMARKS
DULUTH         CLOUDY    -8 -13  78 NW3       30.21R
ELY            CLOUDY   -24 -29  76 CALM      30.20R
HIBBING        PTCLDY   -22 -26  82 CALM      30.22S
EVELETH        CLOUDY   -18 -24  76 CALM      30.22S
DULUTH HARBOR  CLOUDY     0  -8  71 W9        30.31S WCI -16
TWO HARBORS    CLOUDY    -8 -13  77 CALM      30.22R
SILVER BAY     CLOUDY   -15 -18  84 W3        30.20S
GRAND MARAIS     N/A    -11 -17  75 CALM      30.24F
G MARAIS ARPRT CLEAR     -8 -15  71 NW9       30.09R WCI -25
$$
MNZ029>031-032-039>041-046>048-054>057-064-111100-
   West Central Minnesota

CITY           SKY/WX    TMP DP  RH WIND       PRES   REMARKS
FERGUS FALLS   CLOUDY     1   0  92 CALM      30.30S
WHEATON        PTCLDY     1  -2  85 SW5       30.30S WCI  -8
MORRIS         PTCLDY     0  -4  85 W3        30.25F
ALEXANDRIA     CLOUDY     1  -6  72 CALM      30.23F
ELBOW LAKE     FAIR       3   0  87 S3        30.26S
WADENA         PTCLDY    -6  -9  84 CALM      30.23F
GLENWOOD       CLOUDY     3  -4  72 CALM      30.24F
APPLETON       CLOUDY     0  -4  85 CALM      30.28F
BENSON         PTCLDY     1  -2  85 CALM      30.26F
ORTONVILLE     PTCLDY     0  -6  78 NW3       30.27S
MADISON        PTCLDY     1  -2  85 W5        30.28F WCI  -8
WILLMAR        FAIR       5   1  85 CALM      30.28S
$$
MNZ033>034-036-042>043-049>051-058-059-111100-
   Central Minnesota

CITY           SKY/WX    TMP DP  RH WIND       PRES   REMARKS
ST CLOUD       PTCLDY    -1  -7  75 CALM      30.28R
SAUK CENTRE    FAIR      -3  -8  82 CALM      30.26S
PAYNESVILLE    CLOUDY     0  -6  78 CALM      30.27F
AITKIN         PTCLDY   -13 -20  70 CALM      30.25R
PINE RIVER     CLOUDY   -15 -18  84 CALM      30.28S
BRAINERD       CLOUDY   -12 -18  74 CALM      30.26F
STAPLES        PTCLDY    -8 -11  84 CALM      30.24S
LONG PRAIRIE   FAIR      -6  -9  84 N5        30.24F WCI -17
LITTLE FALLS   PTCLDY    -6 -13  71 CALM      30.28S
LITCHFIELD     CLOUDY     1   0  92 CALM      30.28S
BUFFALO        PTCLDY     0  -4  80 CALM      30.30R
MAPLE LAKE     PTCLDY     1  -3  85 CALM      30.29R
$$
MNZ037-044-045-052-053-111100-
   East Central Minnesota

CITY           SKY/WX    TMP DP  RH WIND       PRES   REMARKS
PRINCETON      CLOUDY    -4  -9  77 CALM      30.27F
MORA           CLOUDY    -6 -13  71 CALM      30.29F
CAMBRIDGE      CLOUDY     1  -8  66 CALM      30.27S
RUSH CITY      CLOUDY    -3  -8  77 CALM      30.29S
MOOSE LAKE     PTCLDY    -9 -15  77 CALM      30.25F
HINCKLEY       FAIR      -2  -8  78 NW3       30.28S
CLOQUET        PTCLDY   -13 -18  77 W3        30.23S
MCGREGOR       PTCLDY    -8 -13  77 CALM      30.26S
$$
MNZ071>073-080-081-089-090-097-098-111100-
   Southwest Minnesota

CITY           SKY/WX    TMP DP  RH WIND       PRES   REMARKS
MONTEVIDEO     CLOUDY     3  -2  78 CALM      30.29S
GRANITE FALLS  PTCLDY     0  -3  85 SW3       30.30S
CANBY          CLOUDY     3   0  88 SW3       30.28F
MARSHALL       PTCLDY     1  -4  79 W6        30.28S WCI -10
REDWOOD FALLS  CLOUDY     5   2  87 CALM      30.28S
OLIVIA         CLOUDY     9   3  78 CALM      30.28S
PIPESTONE      CLOUDY    14   3  62 CALM      30.22S
WINDOM         PTCLDY    -6  -8  92 CALM      30.24S
WORTHINGTON    CLOUDY     9   1  72 CALM      30.25R
JACKSON        PTCLDY     3  -2  78 CALM      30.25R
TRACY          PTCLDY     3   0  87 CALM      30.26S
SLAYTON        CLOUDY     4   2  94 N3        30.24R
$$
MNZ065>067-074>077-082>085-091>093-111100-
   South Central Minnesota

CITY           SKY/WX    TMP DP  RH WIND       PRES   REMARKS
MANKATO        PTCLDY     3  -2  78 CALM      30.27S
NEW ULM        PTCLDY     0  -6  78 CALM      30.29R
ST JAMES       PTCLDY     0  -4  85 SW5       30.29R WCI -10
FAIRMONT       CLOUDY     0  -6  78 N3        30.25R
GLENCOE        PTCLDY     2  -2  84 CALM      30.28R
FARIBAULT        N/A     -6  -9  84 CALM      30.28R
OWATONNA       PTCLDY    -2  -8  78 CALM      30.26S
WASECA         PTCLDY    -2  -8  78 CALM      30.28R
ALBERT LEA     CLOUDY    -2  -6  84 CALM      30.25R
$$
MNZ078>079-086>088-094>096-111100-
   Southeast Minnesota

CITY           SKY/WX    TMP DP  RH WIND       PRES   REMARKS
ROCHESTER      PTCLDY     2  -4  76 N6        30.24S WCI  -9
RED WING       PTCLDY    -4  -9  77 CALM      30.29R
STANTON        PTCLDY    -4  -9  79 CALM      30.27S
DODGE CENTER   PTCLDY     1  -6  71 N3        30.23S
WINONA         PTCLDY     1  -4  78 CALM      30.31R
AUSTIN         PTCLDY     0  -6  78 CALM      30.24S
PRESTON        PTCLDY     0  -6  74 NW5       30.25R WCI -10
$$
ABBREVIATIONS USED IN REMARKS
   TC - TEMPERATURES IN CELSIUS
  WCI - WIND CHILL INDEX
   HX - HEAT INDEX
  VSB - VISIBILITY
$$



USA.gov is the U.S. government's official web portal to all federal, state and local government web resources and services.